Dewpoint
43 45 49 49 55 55 55 56 59 59 59 56 54 53 53 54 52 52 53 51 53 53 52 53 54 52 52 52 53 53 52 52
44 47 49 49 53 53 54 54 57 55 55 53 51 51 50 50 49 51 51 51 50 51 50 50 51 50 50 50 50 49 49 52
43 46 49 48 49 49 49 48 49 48 48 49 50 50 50 49 50 48 50 51 50 48 50 48 48 48 48 48 49 48 48 49
43 45 48 49 49 49 46 47 48 50 51 48 49 50 50 48 48 48 49 50 49 49 47 46 47 47 47 46 46 46 45 45
41 44 46 49 50 51 48 48 47 47 50 49 51 49 46 47 47 47 46 46 46 44 44 45 46 47 46 46 44 46 45 43
40 43 45 46 51 51 50 48 46 48 48 49 48 47 47 46 45 45 45 45 45 43 42 43 45 45 45 46 46 45 45 43
40 42 43 46 51 51 50 47 45 47 46 47 47 47 46 44 44 44 44 43 43 42 41 42 44 45 44 44 44 43 42 41
41 40 41 44 46 48 48 47 45 45 47 47 47 46 46 45 45 44 43 41 40 39 42 44 44 43 43 43 43 43 42 41
41 40 43 43 44 45 46 45 43 43 45 46 47 47 46 45 45 44 42 41 40 43 43 42 42 42 42 42 42 42 42 41
39 41 43 43 43 45 45 44 41 42 44 46 45 45 44 44 44 43 41 41 40 42 42 41 41 40 41 41 41 40 40 40
40 40 42 43 43 43 46 42 40 40 39 39 35 39 40 41 42 40 41 40 40 40 40 40 39 39 39 38 38 38 39 38
39 38 40 42 43 42 40 40 37 34 33 35 38 38 39 40 40 40 39 40 39 39 39 38 38 38 38 37 37 37 37 36
38 39 40 41 40 39 38 37 32 32 33 35 36 38 38 38 38 39 40 38 38 39 39 39 39 36 35 34 33 32 31 30
37 38 39 39 38 37 34 32 31 31 32 33 35 36 37 39 39 40 40 40 40 39 38 37 36 35 31 29 27 28 28 26
37 38 38 37 36 35 31 31 32 31 31 33 34 37 36 38 39 39 39 39 39 37 35 31 31 27 25 26 26 27 27 24
39 37 36 34 35 34 31 32 30 32 31 33 33 36 35 36 37 37 35 34 32 31 30 28 28 25 23 26 25 25 25 23
39 34 34 34 34 32 31 30 30 31 30 32 32 33 34 35 35 34 34 32 31 29 27 27 27 21 28 27 26 24 24 23
35 34 34 35 35 31 30 30 30 29 28 28 31 32 33 34 31 30 30 30 28 27 27 27 27 27 28 27 27 24 23 23
34 34 35 35 31 30 31 29 29 29 27 26 27 30 29 31 31 28 29 27 27 26 26 28 26 24 30 28 27 24 23 23
Lifted_Index
-0 -0 -0 -0 -1 -1 -2 -3 -4 -4 -3 -1 -0 0 1 1 2 2 3 3 3 4 4 4 4 4 3 3 3 2 2 2
-0 -0 -0 0 0 -1 -1 -2 -3 -2 -1 -0 1 1 1 1 2 3 3 3 4 4 4 5 5 4 4 4 3 3 3 2
0 0 1 1 1 1 0 -0 -0 0 1 1 2 2 2 2 2 3 3 4 4 5 5 5 5 5 5 4 4 4 4 3
2 1 1 2 2 2 2 2 2 2 2 2 2 2 2 2 3 3 4 4 5 5 6 6 6 5 5 5 5 4 4 4
2 2 2 2 2 2 2 3 3 3 3 3 3 3 3 3 4 4 5 5 6 6 7 6 6 6 5 5 5 4 4 4
2 2 2 2 2 2 2 3 3 3 3 3 4 4 4 5 5 6 6 6 6 7 7 7 6 6 5 5 5 5 5 5
2 2 2 2 2 2 2 3 3 4 4 4 5 5 5 6 6 6 6 6 7 7 7 7 6 6 5 5 5 5 6 6
2 2 2 3 3 3 3 3 3 4 5 5 5 5 6 6 6 6 6 7 7 7 7 6 6 6 6 6 6 7 7 7
2 3 3 3 3 3 3 4 4 5 5 5 5 6 6 6 6 6 6 7 7 7 7 7 7 7 7 7 7 7 7 7
2 3 3 3 3 4 4 5 5 6 6 6 6 7 7 6 6 6 6 7 7 7 7 7 7 7 7 7 7 7 6 6
2 3 3 3 4 4 5 6 6 7 8 8 8 8 8 7 7 6 7 7 7 7 7 7 7 7 7 6 6 5 4 4
3 3 3 4 4 5 6 7 8 9 10 10 10 9 8 7 7 6 6 7 7 7 6 6 6 6 6 5 4 4 4 3
3 3 4 4 5 6 7 8 9 10 11 11 10 9 8 7 6 6 6 6 6 6 5 5 5 5 4 4 4 4 4 4
3 3 4 4 5 6 8 9 10 11 11 10 9 8 7 7 6 6 6 6 5 5 5 4 4 4 4 4 5 5 5 5
3 3 4 5 6 7 9 10 10 10 9 8 8 7 7 7 7 6 6 5 5 4 4 4 4 4 5 5 5 5 6 6
3 4 5 6 7 8 9 10 10 9 8 7 7 7 7 7 6 6 5 5 5 5 5 5 5 5 5 6 6 6 6 7
5 5 6 7 8 9 10 10 9 8 8 7 7 7 7 6 6 5 5 5 5 5 5 5 5 6 6 6 6 7 7 7
7 8 8 9 9 9 9 9 9 8 8 7 7 7 6 5 5 5 5 5 5 6 6 6 6 6 7 7 7 7 7 7
8 9 9 9 9 9 9 8 8 8 8 7 7 7 6 5 4 4 5 5 6 6 6 6 6 6 7 7 7 7 7 7